N1XBM-13 Weather Reports


time (UTC)temp
C
wind
direction
speed
KPH
gust
KPH
rain 1hr
cm
rain 24hr
cm
rain mn
cm
humidity
%
barometer
mb
20260508044004 7 11 0.0 0.0 0.00 0.03 0.00 60 992.0
20260508043004 7 13 1.6 3.2 0.00 0.03 0.00 56 991.9
20260508042004 7 243 0.0 0.0 0.00 0.03 0.00 56 991.8
20260508041004 8 250 0.0 3.2 0.00 0.10 0.00 56 991.9
20260508040005 8 14 1.6 9.7 0.00 0.28 0.00 54 991.9
20260508035004 8 330 0.0 4.8 0.00 0.28 0.28 54 991.8
20260508034005 8 50 0.0 4.8 0.00 0.30 0.28 55 991.9
20260508033003 8 318 1.6 3.2 0.00 0.30 0.28 55 991.9
20260508032004 8 13 0.0 0.0 0.00 0.30 0.28 53 992.0
20260508031004 8 19 0.0 4.8 0.00 0.30 0.28 50 992.0
20260508030004 8 223 0.0 4.8 0.00 0.30 0.28 53 991.9
20260508025004 8 21 1.6 8.0 0.00 0.30 0.28 54 991.8
20260508022004 8 66 0.0 0.0 0.00 0.30 0.28 49 991.6
20260508020004 9 66 0.0 4.8 0.00 0.30 0.28 50 991.5
20260508015006 9 10 0.0 3.2 0.00 0.30 0.28 50 991.4
20260508014004 10 27 0.0 3.2 0.00 0.30 0.28 49 991.2
20260508013004 10 60 1.6 9.7 0.00 0.33 0.28 50 991.3
20260508012004 10 246 0.0 3.2 0.00 0.33 0.28 50 991.1
20260508010005 10 317 1.6 4.8 0.00 0.33 0.28 47 990.9
20260508004004 11 47 0.0 3.2 0.00 0.33 0.28 45 990.6
20260508003005 11 342 0.0 1.6 0.00 0.33 0.28 45 990.4
20260508002005 11 80 0.0 4.8 0.00 0.33 0.28 45 990.3
20260508001004 12 337 0.0 4.8 0.00 0.33 0.28 41 990.1
20260507235005 12 344 1.6 9.7 0.00 0.33 0.28 43 990.1
20260507233004 13 14 3.2 9.7 0.00 0.33 0.28 40 989.8
20260507232005 13 40 3.2 9.7 0.00 0.33 0.28 37 989.6
20260507231005 13 326 0.0 11.3 0.00 0.33 0.28 39 989.4
20260507230006 14 34 3.2 11.3 0.00 0.33 0.28 37 989.3
20260507225004 14 350 8.0 16.1 0.00 0.33 0.28 34 989.2
20260507224004 15 331 3.2 14.5 0.00 0.33 0.28 36 989.0
20260507223004 15 338 3.2 12.9 0.00 0.33 0.28 35 988.9
20260507222004 15 29 3.2 11.3 0.00 0.33 0.28 33 988.9
20260507221003 15 4 3.2 12.9 0.00 0.33 0.28 32 988.8
20260507220004 15 5 1.6 20.9 0.00 0.36 0.28 34 988.7
20260507212003 15 340 1.6 19.3 0.00 0.36 0.28 33 988.7
20260507211004 16 348 4.8 14.5 0.00 0.38 0.28 32 988.7
20260507210005 16 21 4.8 12.9 0.00 0.41 0.28 33 988.6
20260507205004 16 19 6.4 19.3 0.00 0.43 0.28 32 988.5
20260507204004 16 10 4.8 16.1 0.00 0.48 0.28 30 988.5
20260507202004 16 316 4.8 20.9 0.00 0.53 0.28 32 988.5
20260507201004 16 330 9.7 19.3 0.00 0.53 0.28 32 988.5
20260507200004 16 344 6.4 14.5 0.00 0.53 0.28 32 988.6
20260507195004 16 218 8.0 19.3 0.00 0.58 0.28 29 988.5
20260507194004 16 339 4.8 29.0 0.00 0.61 0.28 30 988.4
20260507193004 16 38 8.0 24.1 0.00 0.64 0.28 29 988.6
20260507192003 16 68 6.4 22.5 0.00 0.66 0.28 31 988.7
20260507191004 16 331 4.8 24.1 0.00 0.74 0.28 37 988.7
20260507190005 16 244 4.8 16.1 0.00 0.97 0.28 36 988.7
20260507185003 15 356 9.7 16.1 0.00 1.07 0.28 34 988.8
20260507184004 15 263 4.8 16.1 0.00 1.14 0.28 43 988.8
20260507183004 15 332 4.8 19.3 0.00 1.17 0.28 46 988.8
20260507182004 16 237 4.8 19.3 0.00 1.17 0.28 45 988.9
20260507181004 16 346 6.4 19.3 0.00 1.17 0.28 43 988.8
20260507180005 16 355 4.8 19.3 0.00 1.17 0.28 47 988.8
20260507175003 16 314 0.0 14.5 0.00 1.17 0.28 45 988.9
20260507174004 16 242 8.0 20.9 0.00 1.17 0.28 45 988.7
20260507173004 15 246 9.7 20.9 0.00 1.17 0.28 49 989.0
20260507171004 16 261 8.0 14.5 0.00 1.17 0.28 50 989.1
20260507170004 15 27 3.2 12.9 0.00 1.17 0.28 50 989.2
20260507165005 16 291 3.2 14.5 0.00 1.17 0.28 47 989.3
20260507164003 16 8 6.4 14.5 0.00 1.17 0.28 52 989.3
20260507163005 16 279 3.2 12.9 0.00 1.17 0.28 52 989.3
20260507162004 15 345 4.8 12.9 0.00 1.17 0.28 48 989.4
20260507161004 15 242 4.8 14.5 0.00 1.17 0.28 50 989.5
20260507160004 15 359 8.0 12.9 0.00 1.17 0.28 48 989.7
20260507155004 15 230 6.4 14.5 0.00 1.17 0.28 49 989.9
20260507154004 15 308 3.2 11.3 0.00 1.17 0.28 53 990.0
20260507153004 15 12 1.6 11.3 0.00 1.17 0.28 53 990.1
20260507152003 15 245 3.2 14.5 0.00 1.17 0.28 52 990.1
20260507151004 15 152 3.2 12.9 0.00 1.17 0.28 55 990.0
20260507150004 15 90 3.2 14.5 0.00 1.17 0.28 55 990.1
20260507143004 13 221 4.8 12.9 0.00 1.17 0.28 58 990.3
20260507142004 13 99 3.2 14.5 0.00 1.17 0.28 58 990.5
20260507140004 13 239 4.8 19.3 0.00 1.17 0.28 60 990.7
20260507135004 13 207 3.2 9.7 0.00 1.17 0.28 64 990.8
20260507134004 13 176 1.6 9.7 0.00 1.17 0.28 64 990.8
20260507133005 12 112 3.2 9.7 0.00 1.17 0.28 62 990.9
20260507132003 12 44 4.8 9.7 0.00 1.17 0.28 63 990.8
20260507131004 12 313 3.2 11.3 0.00 1.17 0.28 64 990.9
20260507125004 11 272 3.2 9.7 0.00 1.17 0.28 67 990.9
20260507124004 11 4 4.8 12.9 0.00 1.17 0.28 67 991.0
20260507123004 11 47 4.8 19.3 0.00 1.17 0.28 68 991.1
20260507122005 10 57 8.0 14.5 0.00 1.17 0.28 70 991.0
20260507121004 10 0 3.2 11.3 0.00 1.17 0.28 71 991.1
20260507120004 10 47 0.0 11.3 0.00 1.17 0.28 75 991.1
20260507115004 9 311 4.8 11.3 0.00 1.17 0.28 74 991.1
20260507114004 9 31 3.2 8.0 0.00 1.17 0.28 77 991.1
20260507113004 8 10 3.2 11.3 0.00 1.17 0.28 79 991.0
20260507112004 8 0 1.6 8.0 0.00 1.17 0.28 84 991.2
20260507111005 8 343 0.0 0.0 0.00 1.17 0.28 89 991.4
20260507110005 8 343 0.0 8.0 0.00 1.17 0.28 90 991.1
20260507105004 7 124 0.0 3.2 0.00 1.17 0.28 94 991.5
20260507104004 7 308 0.0 0.0 0.00 1.17 0.28 94 991.3
20260507103004 7 308 0.0 0.0 0.00 1.17 0.28 94 991.2
20260507102006 7 308 0.0 0.0 0.00 1.17 0.28 93 991.1
20260507101004 7 308 0.0 0.0 0.00 1.17 0.28 93 991.4
20260507094005 7 320 1.6 3.2 0.00 1.17 0.28 93 990.6
20260507093004 7 41 0.0 3.2 0.00 1.17 0.28 92 990.4
20260507092004 7 346 0.0 0.0 0.00 1.17 0.28 91 990.5
20260507091004 8 346 0.0 1.6 0.00 1.17 0.28 90 990.5
20260507090005 8 302 1.6 4.8 0.00 1.17 0.28 90 990.9
20260507085005 8 350 0.0 4.8 0.00 1.17 0.28 90 990.5
20260507084003 8 327 3.2 9.7 0.00 1.17 0.28 89 991.2
20260507083004 8 348 1.6 8.0 0.00 1.17 0.28 90 990.8
20260507082004 8 34 0.0 0.0 0.00 1.17 0.28 90 990.6
20260507081004 8 33 1.6 8.0 0.00 1.17 0.28 89 990.7
20260507080005 8 292 1.6 11.3 0.00 1.17 0.28 90 990.5
20260507075004 8 0 4.8 9.7 0.00 1.17 0.28 88 990.6
20260507073004 9 319 1.6 9.7 0.00 1.17 0.28 92 990.3
20260507072004 9 358 4.8 9.7 0.00 1.17 0.28 92 990.5
20260507070008 9 354 3.2 4.8 0.00 1.17 0.28 93 990.0
20260507065004 9 353 1.6 9.7 0.00 1.17 0.28 94 990.0
20260507063004 9 308 1.6 4.8 0.00 1.17 0.28 94 989.9
20260507060004 10 311 1.6 9.7 0.00 1.17 0.28 93 989.7
20260507055004 10 322 1.6 8.0 0.00 1.17 0.28 93 989.5
20260507054004 10 322 1.6 11.3 0.03 1.17 0.28 93 989.5
20260507053004 10 295 1.6 11.3 0.03 1.17 0.28 93 989.3
20260507052004 11 351 3.2 9.7 0.03 1.17 0.28 95 989.4
20260507051003 11 51 0.0 8.0 0.10 1.17 0.28 95 989.4
20260507050004 11 62 0.0 12.9 0.28 1.17 0.28 95 989.4